Regional Weather Roundup
Issued by NWS

Home | Current Version | Previous Version | Graphics & Text | Print | Product List | Glossary On
Versions: 1 2 3 4 5 6 7 8 9 10 11 12 13 14 15 16 17 18 19 20 21 22 23 24 25 26 27 28 29 30 31 32 33 34 35 36 37 38 39 40 41 42 43 44 45 46 47 48 49 50
000
ASUS43 KIND 202209
RWRIN

WEATHER ROUNDUP FOR INDIANA
NATIONAL WEATHER SERVICE INDIANAPOLIS IN
500 PM EST MON FEB 20 2017

NOTE: "FAIR" INDICATES FEW OR NO CLOUDS BELOW 12,000 FEET WITH NO
SIGNIFICANT WEATHER AND/OR OBSTRUCTIONS TO VISIBILITY.

* - STATION DOES NOT REPORT WEATHER SUCH AS PRECIPITATION OR FOG.

+ - STATION NOT QUALITY CONTROLLED BY THE NATIONAL WEATHER SERVICE.
    USE DATA WITH CAUTION...ESPECIALLY DEWPOINT AND RELATIVE
    HUMIDITY OBSERVATIONS.

INZ001>003-010>013-019-020-202300-
NORTHWEST INDIANA

CITY           SKY/WX    TMP DP  RH WIND       PRES   REMARKS
GARY /AIRPORT/ PTSUNNY   68  41  37 SE14G28   30.01F
KNOX *+        CLOUDY    63  16  16 SE17      30.05F
LA PORTE +     CLOUDY    64  42  45 S13       30.04F
MICHIGAN CITY+ MOSUNNY   64  41  42 S8        30.04F
MONTICELLO +   CLOUDY    65  43  45 SE6       30.03F
RENSSELAER +   CLOUDY    64  41  42 SE14      30.03F
VALPARAISO     MOSUNNY   66  43  43 SE15G22   30.04F

$$

LMZ046-743>745-202300-
SOUTHERN LAKE MICHIGAN

STATION/POSITION TIME  TEMP    WIND        PRES    WAVE
                       AIR SEA DIR/SP/G            HT
                 (UTC) (F)     (DEG/KT/KT) (MB)    (FT)
BURNS HARBOR     2200   65     140/ 12/ 22 1016.6
MICHIGAN CITY    2140   65     130/ 13/ 16   N/A

$$

INZ004-005-014>016-021>024-202300-
NORTH CENTRAL INDIANA

CITY           SKY/WX    TMP DP  RH WIND       PRES   REMARKS
ELKHART        SUNNY     63  41  45 SE15      30.08F
GOSHEN         CLOUDY    63  40  42 SE15      30.08F
LOGANSPORT +   MOSUNNY   63  45  51 SE10      30.07F
PERU/GRISSOM   CLOUDY    64  43  45 SE12      30.06F
ROCHESTER +    MOSUNNY   64  37  36 SE8       30.07F
SOUTH BEND     CLOUDY    62  44  51 SE15      30.07F
WARSAW +       CLOUDY    63  41  45 SE8G17    30.08F

$$

INZ006>009-017-018-025>027-202300-
NORTHEAST INDIANA

CITY           SKY/WX    TMP DP  RH WIND       PRES   REMARKS
ANGOLA *+      SUNNY     59  39  47 E10       30.12F
AUBURN +       MOSUNNY   63  37  39 E6        30.12F
FORT WAYNE     PTSUNNY   63  42  46 SE12      30.11F
HUNTINGTON +   MOSUNNY   64  39  40 SE12      30.10F
KENDALLVILLE + CLOUDY    61  40  46 SE14      30.11F

$$

INZ028-029-035-036-043>045-051>053-202300-
WEST CENTRAL INDIANA

CITY           SKY/WX    TMP DP  RH WIND       PRES   REMARKS
GREENCASTLE +  MOSUNNY   64  45  48 SE10      30.05F
LAFAYETTE      CLOUDY    67  45  45 SE9       30.03F
TERRE HAUTE    MOSUNNY   69  47  45 S8        30.04S

$$

INZ030>032-037>040-046>048-054>057-064-065-202300-
CENTRAL INDIANA

CITY           SKY/WX    TMP DP  RH WIND       PRES   REMARKS
COLUMBUS       SUNNY     66  48  52 SE8       30.08F
FRANKFORT +    CLOUDY    68  45  43 SE13      30.07F
GREENWOOD *+   CLOUDY    66  47  49 SE10      30.08F
INDIANAPOLIS   CLOUDY    64  46  52 SE13      30.05F
-EAGLE CREEK   CLOUDY    66  45  46 SE7       30.05F
KOKOMO +       MOSUNNY   64  44  48 SE15      30.08F
MARION +       CLOUDY    64  40  40 SE12      30.09F
MT COMFORT *+  CLOUDY    63  46  55 SE12      30.09S
SHELBYVILLE    CLOUDY    66  46  48 SE10      30.08F
ZIONSVILLE +   CLOUDY    64  45  49 SE13      30.07F

$$

INZ033-034-041-042-049-050-058-059-202300-
EAST CENTRAL INDIANA

CITY           SKY/WX    TMP DP  RH WIND       PRES   REMARKS
MUNCIE         CLOUDY    65  43  44 SE10      30.10S

$$

INZ060-061-067>069-081>083-085>088-202300-
SOUTHWEST INDIANA

CITY           SKY/WX    TMP DP  RH WIND       PRES   REMARKS
EVANSVILLE     PTSUNNY   70  50  49 SE6       30.04F
HUNTINGBURG *+ MOSUNNY   70  49  47 S7        30.05F
WASHINGTON +   MOSUNNY   69  44  40 S12       30.04S

$$

INZ062-063-066-070>080-084-089>092-202300-
SOUTH CENTRAL AND SOUTHEAST INDIANA

CITY           SKY/WX    TMP DP  RH WIND       PRES   REMARKS
BEDFORD +      SUNNY    N/A N/A N/A SE6       30.06F
BLOOMINGTON    CLOUDY    68  46  45 SE9       30.05F
MADISON *+     MOSUNNY   68  45  42 E5        30.11F
NORTH VERNON + CLOUDY    66  45  45 SE3       30.10F
SEYMOUR +      MOSUNNY   70  46  43 SE7       30.07F

$$





USA.gov is the U.S. government's official web portal to all federal, state and local government web resources and services.